NF3Q Weather Reports


time (UTC)temp
C
wind
direction
speed
KPH
gust
KPH
rain 1hr
cm
rain 24hr
cm
rain mn
cm
humidity
%
barometer
mb
20260504042004 5 143 0.0 0.0 0.00 0.00 0.00 76 1013.7
20260504041513 5 143 0.0 0.0 0.00 0.00 0.00 75 1013.7
20260504041004 6 143 0.0 0.0 0.00 0.00 0.00 75 1013.8
20260504040504 6 143 0.0 0.0 0.00 0.00 0.00 75 1013.7
20260504040014 6 143 0.0 0.0 0.00 0.00 0.00 74 1013.7
20260504035504 6 143 0.0 0.0 0.00 0.00 0.00 74 1013.6
20260504035004 6 143 0.0 0.0 0.00 0.00 0.00 74 1013.6
20260504034516 6 143 0.0 0.0 0.00 0.00 0.00 73 1013.7
20260504034004 6 143 0.0 0.0 0.00 0.00 0.00 73 1013.6
20260504033507 6 143 0.0 0.0 0.00 0.00 0.00 72 1013.5
20260504033020 6 143 0.0 0.0 0.00 0.00 0.00 72 1013.5
20260504032506 6 144 0.0 0.0 0.00 0.00 0.00 71 1013.5
20260504032004 7 143 0.0 0.0 0.00 0.00 0.00 71 1013.6
20260504031512 7 143 0.0 0.0 0.00 0.00 0.00 70 1013.6
20260504031004 7 143 0.0 0.0 0.00 0.00 0.00 69 1013.6
20260504030504 7 143 0.0 0.0 0.00 0.00 0.00 69 1013.6
20260504030018 7 143 0.0 0.0 0.00 0.00 0.00 68 1013.7
20260504025507 7 143 0.0 0.0 0.00 0.00 0.00 67 1013.7
20260504025007 7 143 0.0 0.0 0.00 0.00 0.00 67 1013.8
20260504024515 8 143 0.0 0.0 0.00 0.00 0.00 66 1013.8
20260504024004 8 143 0.0 0.0 0.00 0.00 0.00 66 1013.8
20260504023504 8 143 0.0 0.0 0.00 0.00 0.00 65 1013.9
20260504023016 8 143 0.0 0.0 0.00 0.00 0.00 64 1013.9
20260504022505 8 144 0.0 0.0 0.00 0.00 0.00 64 1013.8
20260504022007 8 144 0.0 0.0 0.00 0.00 0.00 63 1013.8
20260504021510 8 146 0.0 0.0 0.00 0.00 0.00 62 1013.9
20260504021002 9 146 0.0 0.0 0.00 0.00 0.00 61 1013.9
20260504020505 9 146 0.0 0.0 0.00 0.00 0.00 61 1013.8
20260504020016 9 146 0.0 0.0 0.00 0.00 0.00 60 1013.8
20260504015507 10 146 0.0 0.0 0.00 0.00 0.00 59 1013.8
20260504015010 10 146 0.0 0.0 0.00 0.00 0.00 58 1013.9
20260504014520 10 146 0.0 0.0 0.00 0.00 0.00 57 1013.9
20260504014008 10 146 0.0 0.0 0.00 0.00 0.00 56 1013.8
20260504013504 10 146 0.0 0.0 0.00 0.00 0.00 55 1013.7
20260504013017 11 146 0.0 0.0 0.00 0.00 0.00 54 1013.8
20260504012505 11 146 0.0 0.0 0.00 0.00 0.00 53 1013.7
20260504012005 11 146 0.0 0.0 0.00 0.00 0.00 52 1013.5
20260504011518 11 146 0.0 0.0 0.00 0.00 0.00 51 1013.5
20260504011004 12 146 0.0 0.0 0.00 0.00 0.00 49 1013.5
20260504010504 12 146 0.0 0.0 0.00 0.00 0.00 46 1013.6
20260504010015 12 146 0.0 0.0 0.00 0.00 0.00 46 1013.6
20260504005504 12 146 0.0 0.0 0.00 0.00 0.00 43 1013.7
20260504005007 13 146 0.0 0.0 0.00 0.00 0.00 42 1013.7
20260504004521 13 157 0.0 0.0 0.00 0.00 0.00 41 1013.7
20260504004008 13 166 0.0 0.0 0.00 0.00 0.00 40 1013.7
20260504003508 13 166 0.0 0.0 0.00 0.00 0.00 40 1013.5
20260504003017 13 219 0.0 0.0 0.00 0.00 0.00 41 1013.5
20260504002504 13 240 0.0 0.0 0.00 0.00 0.00 40 1013.5
20260504002006 13 205 0.0 0.0 0.00 0.00 0.00 39 1013.6
20260504001522 13 273 0.0 8.0 0.00 0.00 0.00 40 1013.6
20260504001005 13 267 0.0 8.0 0.00 0.00 0.00 38 1013.6
20260504000508 13 194 0.0 8.0 0.00 0.00 0.00 39 1013.6
20260504000020 14 225 0.0 11.3 0.00 0.00 0.00 38 1013.4
20260503235504 14 304 0.0 11.3 0.00 0.00 0.00 38 1013.5
20260503235007 14 155 0.0 4.8 0.00 0.00 0.00 38 1013.4
20260503234522 14 318 0.0 4.8 0.00 0.00 0.00 39 1013.5
20260503234007 14 265 0.0 4.8 0.00 0.00 0.00 38 1013.5
20260503233507 14 14 0.0 4.8 0.00 0.00 0.00 38 1013.5
20260503233024 14 178 0.0 9.7 0.00 0.00 0.00 38 1013.5
20260503232509 15 286 0.0 8.0 0.00 0.00 0.00 36 1013.6
20260503232008 15 344 0.0 8.0 0.00 0.00 0.00 36 1013.5
20260503231521 15 190 1.6 8.0 0.00 0.00 0.00 36 1013.6
20260503231008 15 304 0.0 11.3 0.00 0.00 0.00 37 1013.6
20260503230508 15 283 0.0 11.3 0.00 0.00 0.00 36 1013.6
20260503230019 15 212 0.0 12.9 0.00 0.00 0.00 36 1013.7
20260503225504 15 13 0.0 12.9 0.00 0.00 0.00 36 1013.7
20260503225007 15 164 1.6 9.7 0.00 0.00 0.00 35 1013.7
20260503224515 15 279 0.0 4.8 0.00 0.00 0.00 36 1013.7
20260503224007 15 190 0.0 6.4 0.00 0.00 0.00 35 1013.7
20260503223508 15 265 0.0 6.4 0.00 0.00 0.00 36 1013.7
20260503223004 16 208 0.0 6.4 0.00 0.00 0.00 36 1013.8
20260503222503 15 232 0.0 6.4 0.00 0.00 0.00 36 1013.7
20260503222004 16 178 0.0 6.4 0.00 0.00 0.00 36 1013.8
20260503221504 16 301 0.0 6.4 0.00 0.00 0.00 36 1013.8
20260503221005 16 316 1.6 6.4 0.00 0.00 0.00 35 1013.8
20260503220506 16 295 0.0 16.1 0.00 0.00 0.00 35 1013.8
20260503220012 16 317 0.0 16.1 0.00 0.00 0.00 36 1013.8
20260503215505 16 352 0.0 14.5 0.00 0.00 0.00 35 1013.9
20260503215006 16 312 3.2 14.5 0.00 0.00 0.00 37 1013.7
20260503214514 16 288 1.6 11.3 0.00 0.00 0.00 34 1013.6
20260503214004 16 209 3.2 11.3 0.00 0.00 0.00 34 1013.6
20260503213506 16 221 1.6 11.3 0.00 0.00 0.00 36 1013.7
20260503213027 16 211 0.0 8.0 0.00 0.00 0.00 36 1013.6
20260503212508 16 325 1.6 14.5 0.00 0.00 0.00 34 1013.6
20260503212004 16 337 0.0 14.5 0.00 0.00 0.00 35 1013.6
20260503211506 16 269 1.6 14.5 0.00 0.00 0.00 35 1013.6
20260503211004 16 332 3.2 12.9 0.00 0.00 0.00 35 1013.7
20260503210506 16 171 3.2 12.9 0.00 0.00 0.00 36 1013.6
20260503210015 16 309 0.0 12.9 0.00 0.00 0.00 34 1013.6
20260503205504 16 341 3.2 12.9 0.00 0.00 0.00 34 1013.7
20260503205004 16 309 0.0 12.9 0.00 0.00 0.00 35 1013.8
20260503204512 15 213 3.2 12.9 0.00 0.00 0.00 36 1014.0
20260503204006 15 280 1.6 17.7 0.00 0.00 0.00 33 1014.0
20260503203504 16 311 1.6 17.7 0.00 0.00 0.00 33 1014.1
20260503203023 16 229 3.2 11.3 0.00 0.00 0.00 34 1014.1
20260503202509 16 228 0.0 8.0 0.00 0.00 0.00 36 1014.0
20260503202008 16 188 0.0 8.0 0.00 0.00 0.00 35 1014.2
20260503201524 16 279 0.0 8.0 0.00 0.00 0.00 36 1014.2
20260503201003 15 288 0.0 9.7 0.00 0.00 0.00 39 1014.2
20260503200503 15 291 3.2 12.9 0.00 0.00 0.00 35 1014.4
20260503200006 16 254 4.8 12.9 0.00 0.00 0.00 34 1014.4
20260503195504 15 286 1.6 12.9 0.00 0.00 0.00 35 1014.5
20260503195005 15 165 0.0 9.7 0.00 0.00 0.00 35 1014.5
20260503194516 15 320 0.0 14.5 0.00 0.00 0.00 37 1014.5
20260503194005 15 277 6.4 14.5 0.00 0.00 0.00 35 1014.7
20260503193508 15 211 0.0 17.7 0.00 0.00 0.00 36 1014.7
20260503193019 15 93 0.0 17.7 0.00 0.00 0.00 38 1014.7
20260503192505 15 252 3.2 16.1 0.00 0.00 0.00 37 1014.9
20260503192006 15 69 1.6 14.5 0.00 0.00 0.00 36 1014.9
20260503191520 15 247 1.6 14.5 0.00 0.00 0.00 36 1015.1
20260503191011 15 225 3.2 20.9 0.00 0.00 0.00 37 1015.1
20260503190509 15 304 1.6 20.9 0.00 0.00 0.00 39 1015.1
20260503190006 15 294 3.2 14.5 0.00 0.00 0.00 36 1015.1
20260503185503 15 250 0.0 12.9 0.00 0.00 0.00 39 1015.1
20260503185003 15 226 4.8 16.1 0.00 0.00 0.00 38 1015.3
20260503184509 14 351 0.0 16.1 0.00 0.00 0.00 39 1015.2
20260503184010 14 318 0.0 14.5 0.00 0.00 0.00 38 1015.4
20260503183507 14 275 0.0 14.5 0.00 0.00 0.00 37 1015.4
20260503183015 14 319 1.6 19.3 0.00 0.00 0.00 39 1015.6
20260503182507 15 285 6.4 19.3 0.00 0.00 0.00 36 1015.7
20260503182006 15 337 0.0 14.5 0.00 0.00 0.00 37 1015.7
20260503181519 15 308 1.6 14.5 0.00 0.00 0.00 39 1015.5
20260503181009 14 215 4.8 12.9 0.00 0.00 0.00 39 1015.6
20260503180506 14 80 1.6 11.3 0.00 0.00 0.00 38 1015.8
20260503180031 14 333 3.2 9.7 0.00 0.00 0.00 36 1015.9
20260503175509 14 288 0.0 12.9 0.00 0.00 0.00 37 1015.9
20260503175002 14 348 1.6 12.9 0.00 0.00 0.00 37 1015.9
20260503174518 14 275 1.6 16.1 0.00 0.00 0.00 37 1015.9
20260503174004 14 272 1.6 16.1 0.00 0.00 0.00 1016.1
20260503173503 14 297 4.8 12.9 0.00 0.00 0.00 37 1016.2
20260503173015 14 36 0.0 14.5 0.00 0.00 0.00 37 1016.1
20260503172508 14 310 0.0 14.5 0.00 0.00 0.00 39 1016.2
20260503172006 14 290 3.2 14.5 0.00 0.00 0.00 36 1016.2
20260503171520 13 252 0.0 8.0 0.00 0.00 0.00 39 1016.2
20260503171008 13 329 0.0 11.3 0.00 0.00 0.00 42 1016.3
20260503170511 13 304 1.6 11.3 0.00 0.00 0.00 1016.3
20260503151008 11 313 1.6 16.1 0.00 0.03 0.00 43 1017.6
20260503150509 11 317 4.8 16.1 0.00 0.03 0.00 42 1017.5
20260503131005 7 194 0.0 3.2 0.00 0.03 0.00 67 1017.9
20260503130508 7 244 0.0 3.2 0.00 0.03 0.00 71 1018.0
20260503110509 0 171 0.0 0.0 0.00 0.03 0.00 92 1017.3
20260503090509 0 171 0.0 0.0 0.00 0.05 0.00 89 1016.6
20260503081527 1 171 0.0 0.0 0.00 0.05 0.00 88 1016.5
20260503081006 1 171 0.0 0.0 0.00 0.05 0.00 88 1016.5
20260503080510 1 171 0.0 0.0 0.00 0.05 0.00 88 1016.4
20260503072506 1 82 0.0 0.0 0.00 0.05 0.00 88 1016.3
20260503072007 1 75 0.0 0.0 0.00 0.05 0.00 88 1016.3
20260503071535 1 76 0.0 0.0 0.00 0.05 0.00 88 1016.2
20260503071008 1 76 0.0 0.0 0.00 0.05 0.00 88 1016.0
20260503070509 1 76 0.0 0.0 0.00 0.05 0.00 88 1016.1
20260503055007 1 332 0.0 0.0 0.00 0.05 0.00 89 1016.3
20260503054534 1 333 0.0 0.0 0.00 0.05 0.00 89 1016.3
20260503054011 1 333 0.0 0.0 0.00 0.05 0.00 88 1016.4
20260503053507 1 333 0.0 0.0 0.00 0.05 0.00 88 1016.4
20260503053029 1 333 0.0 0.0 0.00 0.05 0.00 89 1016.5
20260503052509 1 333 0.0 0.0 0.00 0.05 0.00 88 1016.5
20260503052009 1 333 0.0 0.0 0.00 0.05 0.00 88 1016.6
20260503051516 1 333 0.0 0.0 0.00 0.05 0.00 88 1016.5
20260503051006 1 331 0.0 0.0 0.00 0.05 0.00 87 1016.6
20260503050507 1 331 0.0 0.0 0.00 0.05 0.00 87 1016.5
20260503050026 1 331 0.0 0.0 0.00 0.05 0.00 87 1016.5
20260503045504 1 331 0.0 0.0 0.00 0.05 0.00 87 1016.6
20260503045004 1 331 0.0 0.0 0.00 0.05 0.00 86 1016.6
20260503044506 1 331 0.0 0.0 0.00 0.05 0.00 86 1016.6
20260503044003 2 331 0.0 0.0 0.00 0.05 0.00 86 1016.6
20260503043508 2 331 0.0 0.0 0.00 0.05 0.00 85 1016.7
20260503043022 2 331 0.0 0.0 0.00 0.05 0.00 85 1016.6
20260503042504 2 331 0.0 0.0 0.00 0.05 0.00 85 1016.6